Wind_Speed
52 51 53 55 57 57 57 56 52 52 52 57 62 56 54 62 36 31 33 29 31 33 34 34 34 33 34 35 33 32 32 33 36 34 34 30 28 27 25 21 21 21 24
51 51 53 56 58 59 59 59 55 54 54 57 61 59 58 54 61 71 69 38 37 38 40 39 36 37 37 36 34 33 31 33 39 35 37 34 30 27 26 24 21 20 23
54 55 55 56 57 58 59 60 58 54 54 55 57 58 58 56 59 51 44 41 42 45 44 41 40 41 39 40 38 36 38 35 42 42 35 36 32 28 25 26 23 21 21
57 60 57 56 58 58 59 59 59 57 55 56 57 59 59 60 61 60 64 57 43 53 47 44 46 45 43 40 39 40 38 38 31 44 40 34 33 30 27 28 23 22 20
58 60 60 60 59 59 60 61 61 59 59 58 59 62 64 64 66 66 65 63 57 53 61 60 46 52 45 36 36 37 31 29 31 27 37 34 33 33 29 28 25 22 21
58 58 59 59 60 61 62 61 61 62 61 61 61 61 64 68 73 76 70 69 72 66 58 52 46 57 33 39 43 44 43 37 28 28 34 39 30 32 28 32 26 20 22
57 57 58 61 62 63 64 64 63 63 63 63 64 65 64 66 72 79 78 76 75 76 73 70 57 41 55 52 56 40 41 29 32 34 30 32 34 28 25 29 26 22 22
57 58 58 61 63 62 63 64 66 66 66 67 67 68 71 71 73 78 82 80 81 81 80 77 73 70 66 61 59 60 42 37 30 27 25 35 31 28 26 28 25 25 25
55 57 57 59 61 62 63 64 65 65 65 66 68 69 70 72 75 77 81 83 82 83 83 81 79 78 75 71 67 60 49 48 43 37 31 27 31 32 31 25 28 26 26
56 55 57 59 60 60 60 62 64 67 67 68 68 71 73 73 76 77 77 81 84 85 86 85 84 82 78 78 73 65 57 50 53 43 40 36 40 40 36 32 29 30 27
46 45 44 44 44 44 44 43 44 46 45 45 45 45 47 51 54 62 76 84 85 87 88 88 84 85 84 80 78 74 63 58 60 39 39 32 34 40 39 35 29 32 25
38 39 40 42 43 45 46 47 49 48 48 46 45 45 45 46 47 48 49 52 63 88 92 92 92 91 81 71 74 78 71 63 53 52 35 33 31 32 38 35 31 28 25
40 41 42 42 42 43 43 42 42 44 45 43 43 44 45 47 48 50 49 51 57 61 73 93 94 94 91 87 74 72 72 62 59 52 47 37 43 41 44 38 32 27 25
38 38 38 40 42 42 43 44 43 43 42 41 41 40 42 44 50 48 48 53 54 57 58 64 81 91 91 88 88 78 68 59 55 55 52 51 47 46 46 40 38 33 26
37 38 39 41 42 43 44 46 47 48 49 48 47 45 44 42 45 45 43 45 44 48 48 53 59 67 81 87 78 73 73 67 55 53 57 51 57 52 52 45 41 37 28
36 37 34 31 33 37 40 43 46 47 49 49 47 46 43 41 41 42 41 42 43 44 44 45 49 57 59 66 73 66 65 56 54 54 54 46 41 46 48 42 39 38 28
36 29 27 28 29 32 35 37 36 40 40 39 39 39 38 39 39 39 39 37 40 43 43 45 42 43 46 51 54 57 47 51 39 49 48 42 43 50 49 47 42 41 34
30 28 28 28 29 28 29 30 29 26 30 31 33 35 33 34 37 35 36 36 34 38 39 41 42 44 42 45 47 52 51 54 40 50 51 54 58 44 41 50 46 42 38
30 27 27 28 29 27 27 25 22 21 23 27 30 30 33 33 34 34 33 32 29 31 34 35 42 44 42 40 47 52 56 56 56 59 57 58 56 49 40 46 50 46 41
30 28 26 27 27 25 23 22 17 16 20 24 26 29 28 25 28 31 30 28 26 27 30 34 40 41 41 41 42 43 52 58 63 63 60 57 53 55 47 45 48 53 46
28 28 25 24 25 24 23 21 19 17 16 15 16 18 20 20 22 26 28 25 22 24 27 33 39 39 39 40 54 42 49 53 64 68 60 58 62 55 41 45 46 58 54
26 28 26 24 23 25 27 27 25 22 20 20 20 20 19 19 19 21 24 24 21 21 26 30 37 39 38 41 44 47 48 43 50 63 65 71 68 55 58 54 48 57 54
26 27 27 26 25 24 24 26 28 29 27 25 22 21 19 18 16 16 16 20 22 21 22 26 32 37 38 43 45 49 49 53 51 51 50 56 63 58 56 57 57 54 60
26 26 26 27 26 26 26 26 27 29 31 31 29 27 25 22 20 18 17 15 18 21 20 19 25 31 37 41 45 49 54 50 51 51 52 55 55 58 60 64 60 61 57
23 24 26 27 26 25 27 29 28 28 28 28 29 32 31 27 24 21 19 17 17 17 19 17 18 25 34 38 42 46 47 42 49 48 48 54 62 63 65 61 57 56 50
21 22 24 26 25 26 25 23 22 23 24 22 21 22 25 31 28 24 20 18 18 19 17 15 15 19 25 37 41 40 46 49 50 51 53 55 54 53 62 66 66 63 61
Wind_Direction
265 265 264 263 262 263 264 264 263 263 265 269 272 275 273 282 227 259 255 250 262 266 271 272 268 268 271 269 270 270 273 276 278 278 277 277 280 284 288 291 300 314 324
269 266 263 260 259 259 262 263 262 261 261 263 267 270 273 275 278 282 262 257 255 267 263 260 263 266 267 271 272 278 280 278 275 270 271 273 276 281 287 288 294 307 322
271 270 267 266 263 262 260 261 261 257 257 258 261 264 266 267 269 277 230 257 251 249 252 259 260 264 267 270 276 280 285 297 280 269 266 272 276 278 280 282 287 300 315
271 268 266 265 263 262 261 260 260 261 256 255 257 260 262 265 267 268 267 275 248 253 258 249 254 259 271 275 276 278 279 274 294 271 269 266 272 277 274 280 281 290 306
268 268 267 264 263 260 259 259 259 259 259 258 256 260 262 262 265 265 268 273 275 277 238 243 250 266 271 271 276 277 279 289 293 267 266 269 269 273 271 268 276 283 296
268 267 268 266 264 263 260 258 257 258 257 257 256 255 258 262 263 263 265 267 269 269 265 261 280 242 269 278 276 273 268 280 287 276 271 267 256 270 270 265 265 277 288
270 268 268 268 266 264 263 263 261 259 257 254 253 254 252 256 258 260 259 261 263 264 265 266 261 260 280 275 274 230 267 294 280 273 262 285 253 249 266 258 266 270 280
271 270 269 268 268 268 267 264 263 261 260 259 257 255 254 252 254 257 259 257 259 261 261 263 263 264 264 264 268 271 279 281 273 278 263 274 266 242 253 261 259 268 280
275 274 274 273 272 270 269 268 267 266 264 262 261 258 256 255 254 252 254 256 256 257 258 259 261 262 262 262 263 266 267 267 271 271 283 264 257 256 250 255 263 262 275
276 276 275 274 274 273 271 268 266 265 263 263 263 261 258 256 253 252 252 253 254 254 255 256 256 258 259 264 264 263 261 260 263 263 268 271 266 259 255 255 255 262 261
279 276 275 273 272 272 271 271 269 267 263 262 260 259 261 262 259 258 253 252 250 249 251 252 253 255 256 256 258 263 260 260 263 264 262 276 272 239 246 244 244 249 250
276 275 274 273 272 271 270 269 269 269 269 269 267 263 261 260 260 261 260 258 254 250 247 247 248 249 250 251 256 255 255 255 254 253 255 253 257 232 241 239 239 240 247
283 281 278 276 275 274 272 270 269 269 269 270 270 267 264 261 260 258 258 260 258 256 251 246 244 245 246 247 247 249 253 249 248 247 248 258 249 244 234 232 228 231 236
285 283 281 279 279 279 275 273 271 270 266 268 270 271 269 265 260 259 260 264 266 258 261 251 245 242 243 245 246 249 250 243 244 245 247 242 250 240 244 233 225 228 225
289 289 287 286 284 281 278 274 270 266 265 267 267 269 272 269 263 262 264 267 264 256 258 253 247 244 243 243 243 248 250 249 236 238 243 247 244 247 231 229 230 227 217
294 292 290 290 291 290 287 282 276 270 264 264 264 265 269 268 265 262 262 264 258 249 253 248 248 246 245 241 240 241 246 249 241 234 240 242 243 228 220 220 218 215 216
298 286 284 288 296 302 299 290 283 273 267 261 262 260 267 265 267 264 262 265 257 252 252 249 245 247 243 238 228 232 231 235 227 222 221 219 227 207 212 214 213 218 211
303 286 285 294 299 303 311 297 286 274 264 259 259 260 266 268 267 267 263 265 263 255 254 247 244 239 236 232 220 216 212 215 213 209 217 218 213 219 205 214 212 221 221
318 300 285 290 298 302 310 312 294 278 266 264 266 265 263 267 265 270 267 267 267 257 252 243 239 234 229 226 218 211 206 203 211 213 208 205 196 208 215 214 214 220 225
327 322 299 289 295 299 302 310 315 297 279 272 268 267 270 264 268 270 267 262 261 252 245 236 232 229 225 223 215 212 211 206 205 211 216 224 226 228 211 212 219 216 218
327 329 323 302 291 293 298 303 305 298 293 288 280 273 271 272 271 266 265 259 257 247 243 230 227 224 219 217 212 206 203 211 208 205 216 217 211 215 212 207 206 211 214
324 329 329 325 309 294 290 293 294 293 292 284 278 275 275 273 270 268 261 255 246 241 236 231 227 225 216 213 212 208 217 205 213 209 215 215 217 217 218 209 214 206 208
323 326 330 329 327 320 307 295 289 284 283 281 279 276 271 270 269 267 264 254 250 245 236 232 225 222 217 214 211 208 209 210 216 216 217 214 208 205 213 207 211 210 208
320 323 329 332 331 328 322 312 302 292 281 273 269 268 266 262 263 263 258 255 248 245 244 235 228 220 214 214 211 211 206 212 217 218 218 212 213 216 216 206 214 217 214
320 324 331 334 331 329 324 320 315 308 302 292 278 262 259 256 252 254 253 245 240 238 238 236 223 218 214 212 214 212 217 215 210 213 216 216 215 215 214 219 222 222 229
323 326 334 335 336 334 332 332 326 321 316 314 305 277 260 250 248 240 246 242 233 224 227 230 223 214 211 212 217 213 213 220 219 219 221 218 221 225 228 223 224 229 231
Height
5785 5786 5785 5785 5786 5787 5788 5792 5796 5797 5795 5790 5783 5791 5790 5764 5754 5777 5791 5792 5801 5806 5809 5809 5808 5808 5809 5810 5812 5813 5815 5816 5814 5817 5816 5819 5820 5820 5819 5817 5814 5811 5808
5769 5770 5770 5770 5771 5773 5774 5777 5783 5784 5784 5780 5776 5778 5775 5775 5770 5775 5775 5782 5790 5792 5796 5797 5799 5799 5799 5803 5804 5807 5808 5809 5803 5811 5809 5811 5813 5812 5813 5813 5810 5808 5805
5755 5755 5755 5755 5756 5757 5759 5761 5765 5770 5771 5770 5768 5768 5767 5768 5764 5748 5731 5757 5768 5776 5780 5787 5790 5788 5791 5793 5797 5799 5800 5802 5797 5798 5805 5804 5806 5806 5806 5808 5807 5805 5802
5741 5739 5740 5740 5740 5741 5742 5745 5748 5752 5756 5759 5758 5758 5758 5756 5753 5755 5747 5762 5762 5767 5767 5770 5774 5774 5781 5785 5786 5788 5791 5791 5791 5788 5794 5799 5799 5802 5799 5801 5802 5801 5798
5725 5724 5724 5724 5724 5724 5725 5727 5730 5734 5738 5743 5747 5746 5745 5744 5742 5744 5748 5747 5751 5745 5755 5734 5748 5762 5772 5774 5774 5778 5781 5782 5780 5779 5782 5794 5795 5793 5793 5794 5797 5796 5795
5709 5707 5707 5707 5706 5707 5708 5709 5712 5715 5720 5724 5730 5734 5731 5729 5726 5725 5735 5736 5734 5741 5743 5739 5744 5750 5751 5759 5761 5766 5771 5774 5773 5775 5778 5778 5790 5786 5786 5788 5790 5792 5790
5693 5691 5689 5689 5688 5688 5689 5691 5693 5696 5699 5704 5709 5713 5721 5719 5713 5708 5718 5724 5724 5727 5732 5734 5738 5720 5737 5746 5749 5751 5760 5763 5766 5768 5770 5771 5778 5780 5782 5784 5784 5787 5785
5677 5673 5671 5670 5670 5672 5672 5673 5674 5676 5679 5682 5687 5691 5695 5703 5704 5698 5693 5704 5708 5710 5713 5716 5721 5724 5731 5737 5737 5739 5749 5756 5760 5763 5763 5764 5765 5774 5775 5779 5782 5781 5781
5659 5657 5654 5654 5653 5652 5651 5652 5654 5656 5659 5661 5663 5667 5671 5676 5679 5683 5681 5680 5686 5690 5695 5699 5703 5706 5714 5721 5728 5735 5741 5748 5748 5755 5756 5758 5760 5764 5768 5773 5775 5776 5775
5643 5640 5638 5636 5634 5634 5633 5632 5632 5633 5636 5638 5641 5643 5647 5652 5653 5658 5664 5664 5667 5670 5674 5679 5687 5691 5698 5703 5709 5720 5729 5735 5738 5743 5748 5750 5755 5755 5760 5764 5768 5769 5769
5627 5625 5623 5620 5618 5617 5615 5615 5615 5615 5616 5619 5622 5624 5626 5628 5629 5632 5638 5643 5645 5649 5652 5657 5663 5668 5675 5684 5692 5700 5711 5720 5726 5733 5739 5738 5738 5742 5752 5755 5761 5762 5763
5615 5613 5610 5608 5606 5604 5602 5602 5601 5600 5601 5602 5605 5608 5610 5612 5613 5614 5616 5617 5621 5623 5630 5635 5641 5648 5655 5665 5671 5683 5695 5705 5715 5721 5728 5732 5737 5741 5745 5748 5751 5755 5756
5604 5600 5597 5594 5592 5590 5589 5588 5587 5586 5586 5587 5587 5589 5592 5593 5594 5595 5597 5599 5600 5601 5602 5608 5616 5625 5634 5643 5652 5661 5674 5690 5700 5707 5717 5723 5728 5733 5735 5739 5744 5747 5749
5591 5588 5585 5582 5579 5577 5575 5573 5572 5572 5572 5573 5573 5573 5574 5574 5574 5575 5578 5579 5581 5583 5584 5586 5591 5601 5610 5621 5633 5643 5654 5673 5685 5694 5702 5712 5716 5721 5729 5732 5734 5740 5743
5580 5576 5573 5569 5565 5563 5560 5558 5557 5556 5557 5557 5558 5558 5558 5558 5557 5559 5562 5562 5563 5565 5565 5568 5574 5581 5591 5603 5617 5626 5638 5652 5671 5680 5688 5696 5703 5708 5715 5723 5725 5734 5736
5570 5565 5561 5558 5554 5550 5546 5542 5539 5538 5539 5540 5541 5542 5543 5543 5543 5544 5545 5545 5546 5547 5550 5553 5559 5566 5575 5585 5599 5611 5624 5637 5653 5665 5674 5682 5686 5692 5702 5712 5715 5724 5730
5558 5554 5552 5549 5544 5539 5533 5528 5525 5522 5522 5524 5526 5528 5529 5530 5529 5530 5530 5531 5531 5533 5536 5539 5547 5552 5559 5568 5581 5596 5611 5627 5638 5649 5663 5671 5675 5677 5689 5700 5708 5715 5721
5549 5545 5543 5539 5535 5530 5524 5518 5513 5511 5510 5513 5514 5516 5517 5517 5516 5517 5518 5518 5519 5521 5524 5528 5534 5539 5547 5555 5567 5581 5596 5613 5625 5637 5647 5657 5671 5664 5673 5687 5698 5705 5712
5541 5535 5533 5530 5526 5521 5516 5510 5506 5504 5504 5504 5504 5505 5506 5506 5505 5505 5506 5508 5509 5511 5513 5516 5520 5527 5535 5543 5554 5566 5580 5595 5610 5620 5632 5642 5650 5654 5667 5674 5685 5694 5703
5533 5526 5522 5520 5517 5513 5509 5505 5501 5498 5497 5496 5495 5495 5495 5496 5496 5495 5495 5497 5498 5500 5502 5505 5509 5517 5524 5533 5544 5556 5566 5579 5592 5606 5617 5628 5637 5649 5657 5664 5672 5682 5694
5527 5521 5515 5511 5508 5506 5503 5500 5497 5494 5491 5490 5488 5488 5487 5488 5487 5485 5485 5487 5489 5490 5492 5495 5499 5506 5514 5522 5531 5541 5555 5567 5579 5592 5603 5614 5628 5637 5643 5652 5659 5669 5682
5520 5515 5510 5505 5501 5498 5495 5493 5490 5487 5485 5483 5481 5480 5479 5479 5478 5477 5477 5478 5480 5482 5483 5485 5490 5497 5505 5514 5522 5530 5541 5553 5565 5578 5589 5600 5612 5621 5631 5641 5650 5660 5671
5515 5510 5505 5499 5495 5491 5486 5483 5481 5478 5476 5475 5473 5472 5471 5471 5471 5471 5470 5471 5472 5474 5476 5478 5482 5488 5497 5505 5513 5523 5534 5545 5554 5565 5575 5586 5600 5609 5617 5631 5640 5650 5660
5510 5506 5500 5495 5490 5485 5480 5475 5471 5467 5465 5463 5463 5463 5463 5463 5464 5464 5465 5465 5466 5468 5470 5474 5477 5481 5488 5496 5504 5515 5525 5536 5546 5554 5564 5573 5585 5595 5604 5618 5629 5639 5648
5505 5501 5496 5490 5485 5480 5474 5469 5463 5458 5453 5451 5449 5450 5452 5454 5456 5457 5459 5460 5462 5463 5465 5468 5472 5477 5482 5488 5496 5506 5517 5525 5536 5545 5553 5562 5573 5584 5595 5606 5617 5626 5634
5501 5496 5491 5486 5480 5475 5470 5464 5458 5452 5447 5443 5440 5438 5439 5442 5446 5449 5451 5454 5456 5459 5461 5464 5467 5471 5476 5483 5490 5499 5509 5517 5527 5537 5544 5555 5566 5576 5585 5595 5605 5612 5621